Location: Most
(50.5133°N, 13.6207°E)
Time: 09:39:49
(UTC+02:00)

ISS - Pass Details

Date: 19 July 2018
Orbit: 402 x 408 km, 51.6° (Epoch: 17 July)

Event Time Altitude Azimuth Distance (km) Brightness Sun altitude
Rises 03:06:09 0° 283° (WNW) 2,330 -0.1 -14.3°
Reaches altitude 10° 03:08:14 10° 283° (WNW) 1,470 -1.1 -14.1°
Maximum altitude 03:11:32 87° 198° (SSW) 413 -3.9 -13.9°
Drops below altitude 10° 03:14:50 10° 106° (ESE) 1,468 -0.8 -13.6°
Sets 03:16:55 0° 106° (ESE) 2,328 0.2 -13.5°
